Location: Newark
(58.9986°N, 38.5006°E)
Time: 01:36:13
(UTC+00:00)

Explorer 7 - All Passes

Search period start: 21 April 2021 00:00
Search period end: 01 May 2021 00:00
Orbit: 484 x 677 km, 50.3° (Epoch: 20 April)

Date Brightness Start Highest point End Pass type
(mag) Time Alt. Az. Time Alt. Az. Time Alt. Az.
21 Apr - 17:28:09 10° S 17:30:28 15° SSE 17:32:52 10° ESE daylight
21 Apr - 19:06:30 10° SW 19:09:58 25° S 19:13:36 10° ESE visible
21 Apr - 20:46:12 10° WSW 20:49:41 24° SSW 20:53:19 10° SE visible
21 Apr - 22:27:09 10° WSW 22:29:11 13° SSW 22:31:16 10° S night (unlit)
22 Apr - 17:31:50 10° SSW 17:34:37 18° SSE 17:37:30 10° ESE daylight
22 Apr - 19:10:42 10° SW 19:14:12 26° S 19:17:53 10° ESE visible
22 Apr - 20:50:37 10° WSW 20:53:54 21° SSW 20:57:19 10° SSE visible
23 Apr - 17:35:43 10° SSW 17:38:47 21° SSE 17:41:59 10° ESE daylight
23 Apr - 19:14:57 10° WSW 19:18:26 26° S 19:22:06 10° SE visible
23 Apr - 20:55:08 10° WSW 20:58:05 18° SSW 21:01:09 10° SSE visible
24 Apr - 16:02:07 10° S 16:03:35 12° SSE 16:05:05 10° SE daylight
24 Apr - 17:39:45 10° SW 17:42:59 23° SSE 17:46:23 10° ESE daylight
24 Apr - 19:19:15 10° WSW 19:22:40 24° S 19:26:16 10° SE visible
24 Apr - 20:59:48 10° WSW 21:02:14 15° SSW 21:04:45 10° S visible
25 Apr - 16:05:26 10° S 16:07:42 15° SSE 16:10:02 10° ESE daylight
25 Apr - 17:43:53 10° SW 17:47:12 24° S 17:50:42 10° ESE visible
25 Apr - 19:23:37 10° WSW 19:26:54 22° SSW 19:30:19 10° SE visible
25 Apr - 21:04:55 10° SW 21:06:22 11° SSW 21:07:50 10° SSW visible
26 Apr - 16:09:08 10° SSW 16:11:51 18° SSE 16:14:39 10° ESE daylight
26 Apr - 17:48:05 10° SW 17:51:26 25° S 17:54:58 10° ESE visible
26 Apr - 19:28:04 10° WSW 19:31:06 20° SSW 19:34:16 10° SSE visible
27 Apr - 16:13:03 10° SSW 16:16:01 20° SSE 16:19:07 10° ESE daylight
27 Apr - 17:52:20 10° WSW 17:55:40 24° S 17:59:09 10° SE visible
27 Apr - 19:32:37 10° WSW 19:35:16 16° SSW 19:38:01 10° SSE visible
28 Apr - 14:39:18 10° S 14:40:47 12° SSE 14:42:19 10° SE daylight
28 Apr - 16:17:05 10° SW 16:20:13 22° S 16:23:29 10° ESE daylight
28 Apr - 17:56:39 10° WSW 17:59:53 23° S 18:03:16 10° SE visible
28 Apr - 19:37:24 10° WSW 19:39:25 13° SSW 19:41:29 10° S visible
29 Apr - 14:42:40 10° S 14:44:54 15° SSE 14:47:12 10° ESE daylight
29 Apr - 16:21:14 10° SW 16:24:26 24° S 16:27:46 10° ESE daylight
29 Apr - 18:01:02 10° WSW 18:04:06 21° SSW 18:07:18 10° SE visible
30 Apr - 14:46:24 10° SSW 14:49:03 18° SSE 14:51:47 10° ESE daylight
30 Apr - 16:25:26 10° SW 16:28:39 24° S 16:32:00 10° SE daylight
30 Apr - 18:05:30 10° WSW 18:08:17 18° SSW 18:11:10 10° SSE visible
